Showing default

EXPRESS 80, 45986

Orbit data source: Space-Track

EXPRESS 80, 45986 is a payload satellite owned by KosSvyaz (CIS) in GEO that was launched on Thu, 30 Jul 2020 UTC via a PROTON-M/BRIZ-M launch vehicle from the Tyuratam Missile And Space Complex (TTMTR). Payload-class satellites include a variety of spacecraft equipped with specific instruments for various scientific and technological missions. These include communications satellites like Starlink; space stations such as the ISS; scientific satellites like the Hubble; Earth observation satellites from companies like Planet Labs, Umbra, and HawkEye 360; GPS; miniature CubeSats for education and research; and military/defense satellites.

Not visible in the next 10 days
Identifier
45986, 2020-053B
Orbit
GEO
Last TLE update
1 day ago
Origin
Manufacturer
Resehetnev ISS
Mission
Operational Commercial Communications
Bus & Motor
EKSPRESS-1000N, AOCS
Mass
2,110 kg wet, ~1,800 kg dry
Launch date (UTC)
2020-07-30 (5 years ago)
Launch vehicle
PROTON-M/BRIZ-M
Launch site
Tyuratam Missile And Space Complex (TTMTR)
Object type
Payload
Rocket body
Debris
Shape & HBR
Box + 2 Pan, Unknown HBR
Radar Cross Section
16.987 m², Large (>1 m²)

Expand to show TLE details & history

TLE from 1 day ago
0 EXPRESS 80
1 45986U 20053B   25190.97741111 -.00000122  00000-0  00000-0 0  9996
2 45986   0.0165  16.4503 0001910 200.2645 143.2721  1.00269887 18207
Epoch: 2025-07-09T23:27Z
TLE epoch observation values (Epoch: 2025-07-09T23:27:28.319Z)
Latitude
-0.01507°
Longitude
79.98458°
Altitude
35,793.032 km
Speed
3.074 km/s
True Right ascension
00h 00m 00s
True Declination
0° 00' 54"
Sunlit
Object was in daylight at epoch
Visualization orbit readout
Latitude
0.04247°
Longitude
-177.78495°
Altitude
35,789.994 km
Speed
3.074 km/s
Apparent Right ascension
06h 46m 49s
Apparent Declination
-4° 54' 26"
Sunlit
Object is in daylight
Visualization observer readout
Local Sidereal Time
18:28:40
Azimuth
352.152° N
Elevation
-54.753°
Doppler factor
1
Orbital elements
Apogee altitude
35,796.251 km
Perigee altitude
35,780.144 km
Semi-major axis
42,166.334 km
Eccentricity
0.00019
Inclination
0.0165°
RAAN
16.4503°
Arg. of periapsis
200.2645°
True anomaly
Unknown
Mean anomaly
143.2721°
Eccentric anomaly
Unknown
Mean motion
0.25067 °/min
Orbital period
1,436.18 mins
BSTAR
0
Loading historical data...
45986 neighbors
Loading maneuver chart data...
Loading SW <> Apogee altitude chart data...
Loading historical data...
Loading historical data...
Loading historical data...
Loading historical data...
Loading historical data...
Loading historical data...
Loading historical data...
Other satellites on launch #53 in the year 2020 (2020-07-30 UTC)

EXPRESS 80 Visibility

Observer location: undefined°, undefined°

EXPRESS 80 is likely not visible in the next few days
Span
Click to sort rows by Start time (UTC) header in descending order
Start Az.
Max El. time (UTC)
Max El. Az.
Max El.
End time (UTC)
End Az.
|